Location: Unspecified
(0.0000°N, 0.0000°E)
Time: 06:52:20
(UTC+00:00)

S-56A Canister/Altair - Pass Details

Date: 30 May 2024
Orbit: 637 x 2489 km, 38.9° (Epoch: 22 June)

Event Time Altitude Azimuth Distance (km) Brightness Sun altitude
Rises 23:43:47 0° 225° (SW) 4,957 - -67.8°
Reaches altitude 10° 23:46:41 10° 223° (SW) 4,181 - -67.9°
Maximum altitude 23:58:42 79° 137° (SE) 2,318 - -68.0°
Exits shadow 00:10:44 19° 53° (NE) 4,384 11.4 -67.8°
Drops below altitude 10° 00:13:51 10° 52° (NE) 5,139 11.8 -67.7°
Sets 00:17:49 0° 51° (NE) 6,112 12.4 -67.5°
